Meteo Giornale » Osservazioni meteo Francia » Annecy-Meythet

ore: 16:00 - Osservazioni Meteo Annecy-Meythet
Lat. 45° 55' N Lon. 6° 5' E Alt. 463 metri s.l.m.

sereno Europe/Paris

25 °C

Sereno

Temp. 24 Ore

10 °C

25 °C

Ovest

11.1 Km/h

Dew point 12 °C

Umidità 44 %

Visibilità  10 Km

Il sole sorge alle ore 07:24

Il sole tramonta alle ore 19:31

Data e Ora Cielo e Fenomeni T °C DP °C Um. % Pres. hPa Vis. km Vento km/h
Oggi h: 16:00 sereno Sereno 25 12 44 1018 10 O 11.1
Oggi h: 14:30 sereno Sereno 24 15 57 1019 10 N 5.5
Oggi h: 14:00 sereno Sereno 23 15 60 1019 10 N 5.5
Oggi h: 13:30 sereno Sereno 23 14 56 1020 10 N 3.7
Oggi h: 13:00 sereno Sereno 22 14 60 1020 10 N 3.7
Oggi h: 12:30 sereno Sereno 21 14 64 1020 10 N 3.7
Oggi h: 12:00 sereno Sereno 20 14 68 1021 10 N 3.7
Oggi h: 11:30 sereno Sereno 19 13 68 1021 10 N 3.7
Oggi h: 11:00 sereno Sereno 19 13 68 1021 10 N 3.7
Oggi h: 10:30 sereno Sereno 17 13 77 1021 10 N 5.5
Oggi h: 09:30 sereno Sereno 15 12 82 1021 10 N 5.5
Oggi h: 09:00 sereno Sereno 14 11 82 1021 10 N 3.7
Oggi h: 08:30 sereno Sereno 12 11 93 1021 10 N 5.5
Oggi h: 07:30 sereno Sereno 10 9 93 1021 10 N 5.5
Oggi h: 07:00 sereno Sereno 10 9 93 1021 10 N 5.5
Oggi h: 06:30 sereno Sereno 10 9 93 1021 10 N 3.7
Oggi h: 06:00 sereno Sereno 11 10 93 1021 10 E/NE 9.3
Oggi h: 05:30 sereno Sereno 11 10 93 1021 10 NE 9.3
Oggi h: 05:00 sereno Sereno 11 10 93 1021 10 N 5.5
Oggi h: 04:30 sereno Sereno 11 10 93 1021 10 E/NE 7.4
Oggi h: 04:00 sereno Sereno 11 10 93 1021 10 N 5.5
Oggi h: 03:30 sereno Sereno 11 10 93 1021 10 NE 7.4
Oggi h: 03:00 sereno Sereno 11 10 93 1021 10 E/NE 7.4
Oggi h: 02:30 sereno Sereno 12 11 93 1021 10 N 3.7
Oggi h: 02:00 sereno Sereno 12 11 93 1021 10 NE 7.4
Oggi h: 01:30 sereno Sereno 12 11 93 1022 10 NE 9.3
Oggi h: 01:00 sereno Sereno 12 11 93 1022 10 NE 11.1
Ieri h: 23:30 sereno Sereno 14 12 87 1022 10 NE 9.3
Ieri h: 23:00 sereno Sereno 14 12 87 1022 10 N/NE 9.3
Ieri h: 22:30 sereno Sereno 14 12 87 1022 10 NE 7.4
Ieri h: 22:00 sereno Sereno 15 13 87 1022 10 NE 7.4
Ieri h: 21:30 sereno Sereno 15 14 93 1022 10 NE 9.3
Ieri h: 20:30 sereno Sereno 16 14 87 1021 10 N 5.5
Ieri h: 20:00 sereno Sereno 18 13 72 1021 10 N 3.7
Ieri h: 19:30 sereno Sereno 19 14 72 1021 10 N 3.7
Ieri h: 19:00 sereno Sereno 21 14 64 1021 10 N 5.5
Ieri h: 18:30 sereno Sereno 22 13 56 1021 10 O 11.1
Ieri h: 18:00 sereno Sereno 23 14 56 1021 10 O/SO 9.3
Ieri h: 17:30 sereno Sereno 23 13 53 1021 10 O/SO 13